Berlin, NH

12:03 AM EDT on April 26, 2018 (GMT -0400)
Berlin Municipal

Weather History for KBML - September, 2012

Change the Weather History Date:

Sunday, September 9, 2012

  Actual Average Record
Temperature  
Mean Temperature 54 °F -  
Max Temperature 68 °F 70 °F 91 °F (2002)
Min Temperature 42 °F 43 °F 30 °F (2013)
Degree Days  
Heating Degree Days 11    
Growing Degree Days 4 (Base 50)    
Moisture  
Dew Point 48 °F    
Average Humidity 79    
Maximum Humidity 100    
Minimum Humidity 48    
Precipitation  
Precipitation 0.03 in - - ()
Sea Level Pressure  
Sea Level Pressure 29.83 in    
Wind  
Wind Speed 2 mph (West)    
Max Wind Speed 8 mph    
Max Gust Speed -    
Visibility 9 miles    
Events Fog , Rain    
Averages and records for this station are not official NWS values.
T = Trace of Precipitation, MM = Missing Value Source: NWS Daily Summary

Daily Weather History Graph

Daily Weather History Graph

Search for Another Location

Airport or City:

Astronomy

Sep. 09, 2012 Rise Set
Actual Time 6:17 AM EDT 7:05 PM EDT
Civil Twilight 5:47 AM EDT 7:35 PM EDT
Nautical Twilight 5:12 AM EDT 8:10 PM EDT
Astronomical Twilight 4:35 AM EDT 8:46 PM EDT
Moon No Moon Rise 2:59 PM EDT (9/9)
Length of Visible Light 13h 47m
Length of Day
12h 48m
Last Quarter, 39% of the Moon is Illuminated
Sep 9
Last Quarter
Sep 15
New
Sep 22
First Quarter
Sep 29
Full
Oct 8
Last Quarter

Hourly Weather History & Observations

Time (EDT) Temp. Dew Point Humidity Pressure Visibility Wind Dir Wind Speed Gust Speed Precip Events Conditions
12:52 AM 61.0 °F 57.0 °F 87% 29.68 in 10.0 mi SSW 5.8 mph - 0.02 in Rain Light Rain
1:52 AM 61.0 °F 55.9 °F 83% 29.69 in 10.0 mi Calm Calm - 0.01 in   Mostly Cloudy
2:52 AM 61.0 °F 55.0 °F 81% 29.70 in 10.0 mi Calm Calm - N/A   Overcast
2:59 AM 60.8 °F 55.4 °F 82% 29.72 in 10.0 mi Variable 4.6 mph - N/A   Overcast
3:52 AM 57.0 °F 52.0 °F 83% 29.74 in 10.0 mi Calm Calm - N/A   Scattered Clouds
4:04 AM 57.2 °F 51.8 °F 82% 29.76 in 10.0 mi Variable 3.5 mph - N/A   Mostly Cloudy
4:18 AM 55.4 °F 51.8 °F 88% 29.76 in 10.0 mi Calm Calm - N/A   Scattered Clouds
4:44 AM 55.4 °F 51.8 °F 88% 29.78 in 10.0 mi Calm Calm - N/A   Mostly Cloudy
4:52 AM 55.0 °F 51.1 °F 86% 29.77 in 10.0 mi Calm Calm - N/A   Mostly Cloudy
5:36 AM 53.6 °F 50.0 °F 88% 29.78 in 10.0 mi Calm Calm - N/A   Scattered Clouds
5:52 AM 53.1 °F 48.9 °F 86% 29.79 in 10.0 mi Calm Calm - N/A   Partly Cloudy
6:52 AM 53.1 °F 48.0 °F 83% 29.82 in 10.0 mi Variable 3.5 mph - N/A   Scattered Clouds
7:02 AM 53.6 °F 48.2 °F 82% 29.82 in 10.0 mi WNW 3.5 mph - N/A   Mostly Cloudy
7:09 AM 53.6 °F 48.2 °F 82% 29.82 in 10.0 mi Calm Calm - N/A   Scattered Clouds
7:39 AM 53.6 °F 48.2 °F 82% 29.83 in 10.0 mi Calm Calm - N/A   Mostly Cloudy
7:52 AM 54.0 °F 46.9 °F 77% 29.83 in 10.0 mi Calm Calm - N/A   Mostly Cloudy
8:01 AM 53.6 °F 48.2 °F 82% 29.84 in 10.0 mi Calm Calm - N/A   Scattered Clouds
8:52 AM 55.9 °F 46.9 °F 72% 29.84 in 10.0 mi Calm Calm - N/A   Clear
9:52 AM 55.9 °F 48.0 °F 75% 29.86 in 10.0 mi Variable 5.8 mph - N/A   Clear
10:52 AM 60.1 °F 48.0 °F 64% 29.86 in 10.0 mi SW 5.8 mph - N/A   Clear
11:52 AM 63.0 °F 46.0 °F 54% 29.85 in 10.0 mi Variable 4.6 mph - N/A   Partly Cloudy
12:52 PM 64.9 °F 46.9 °F 52% 29.86 in 10.0 mi NW 8.1 mph - N/A   Clear
1:52 PM 64.9 °F 48.0 °F 54% 29.85 in 10.0 mi Variable 3.5 mph - N/A   Overcast
2:52 PM 66.0 °F 46.0 °F 48% 29.84 in 10.0 mi Variable 6.9 mph - N/A   Partly Cloudy
3:52 PM 66.0 °F 48.0 °F 52% 29.83 in 10.0 mi West 4.6 mph - N/A   Mostly Cloudy
4:52 PM 66.9 °F 46.9 °F 49% 29.85 in 10.0 mi Variable 3.5 mph - N/A   Partly Cloudy
5:52 PM 64.9 °F 46.9 °F 52% 29.86 in 10.0 mi Variable 4.6 mph - N/A   Clear
6:52 PM 61.0 °F 46.0 °F 58% 29.87 in 10.0 mi Calm Calm - N/A   Clear
7:52 PM 52.0 °F 48.9 °F 89% 29.89 in 10.0 mi Calm Calm - N/A   Clear
8:52 PM 48.0 °F 46.0 °F 93% 29.91 in 10.0 mi Calm Calm - N/A   Clear
9:52 PM 46.0 °F 44.1 °F 93% 29.92 in 10.0 mi Calm Calm - N/A   Clear
10:37 PM 44.6 °F 42.8 °F 93% 29.90 in 10.0 mi Calm Calm - N/A   Scattered Clouds
10:52 PM 45.0 °F 43.0 °F 93% 29.92 in 10.0 mi Calm Calm - N/A   Scattered Clouds
11:19 PM 42.8 °F 42.8 °F 100% 29.91 in 1.5 mi Calm Calm - N/A   Scattered Clouds
11:21 PM 42.8 °F 42.8 °F 100% 29.90 in 1.0 mi Calm Calm - N/A   Mist
11:28 PM 44.6 °F 42.8 °F 93% 29.91 in 0.2 mi Calm Calm - N/A Fog Fog
11:41 PM 44.6 °F 42.8 °F 93% 29.91 in 0.8 mi Calm Calm - N/A   Mist
11:52 PM 43.0 °F 42.1 °F 97% 29.92 in 1.0 mi Calm Calm - N/A   Mist
11:55 PM 42.8 °F 42.8 °F 100% 29.91 in 2.5 mi Calm Calm - N/A   Mostly Cloudy